Location: El Bakhil
(32.7726°N, 5.5387°W)
Time: 18:37:53
(UTC+00:00)

Cosmos 1862 Rocket - Pass Details

Date: 03 March 2021
Orbit: 603 x 634 km, 82.5° (Epoch: 09 April)

Event Time Altitude Azimuth Distance (km) Brightness Sun altitude
Rises 19:02:59 0° 357° (N) 2,933 7.1 -9.6°
Reaches altitude 10° 19:05:15 10° 1° (N) 2,021 6.2 -10.1°
Maximum altitude 19:09:42 63° 82° (E) 705 3.6 -11.0°
Drops below altitude 10° 19:14:06 10° 164° (SSE) 1,997 6.0 -11.9°
Sets 19:16:20 0° 168° (SSE) 2,896 6.9 -12.4°
